Weather History for Natchitoches, LA

Change the Weather History Date:

Sunday, December 29, 2013

  Actual Average Record
Temperature  
Mean Temperature 46 °F -  
Max Temperature 60 °F 59 °F 77 °F (1951)
Min Temperature 32 °F 39 °F 20 °F (1961)
Degree Days  
Heating Degree Days 19    
Moisture  
Dew Point 39 °F    
Average Humidity 77    
Maximum Humidity 100    
Minimum Humidity 43    
Precipitation  
Precipitation 0.00 in - - ()
Sea Level Pressure  
Sea Level Pressure 30.08 in    
Wind  
Wind Speed 0 mph (SSW)    
Max Wind Speed 5 mph    
Max Gust Speed -    
Visibility 9 miles    
Events      
Averages and records for this station are not official NWS values.
T = Trace of Precipitation, MM = Missing Value Source: NWS Daily Summary

Daily Weather History Graph

Daily Weather History Graph

Search for Another Location

Airport:

Trip Planner

Search our weather history database for the weather conditions in past years. The results will help you decide how hot, cold, wet, or windy it might be!

Date:

Astronomy

Dec. 29, 2013 Rise Set
Actual Time 7:11 AM CST 5:17 PM CST
Civil Twilight 6:44 AM CST 5:44 PM CST
Nautical Twilight 6:14 AM CST 6:15 PM CST
Astronomical Twilight 5:44 AM CST 6:44 PM CST
Moon 4:00 AM CST (12/29) 2:52 PM CST (12/29)
Length of Visible Light 10h 59m
Length of Day
10h 06m
Waning Crescent, 11% of the Moon is Illuminated
Dec 29
Waning Crescent
Jan 1
New
Jan 7
First Quarter
Jan 15
Full
Jan 23
Last Quarter

Hourly Weather History & Observations

Time (CST) Temp. Dew Point Humidity Pressure Visibility Wind Dir Wind Speed Gust Speed Precip Events Conditions
12:15 AM 38.5 °F 37.6 °F 97% 30.02 in 10.0 mi Calm Calm - N/A   Scattered Clouds
12:35 AM 37.2 °F 36.3 °F 97% 30.03 in 10.0 mi Calm Calm - N/A   Clear
12:55 AM 37.6 °F 36.9 °F 97% 30.04 in 10.0 mi Calm Calm - N/A   Clear
1:15 AM 37.4 °F 36.9 °F 98% 30.04 in 10.0 mi Calm Calm - N/A   Scattered Clouds
1:35 AM 37.2 °F 36.5 °F 97% 30.04 in 10.0 mi Calm Calm - N/A   Scattered Clouds
1:55 AM 36.5 °F 35.8 °F 97% 30.04 in 10.0 mi Calm Calm - N/A   Clear
2:15 AM 34.9 °F 34.5 °F 99% 30.04 in 7.0 mi Calm Calm - N/A   Clear
2:35 AM 34.9 °F 34.9 °F 100% 30.03 in 7.0 mi Calm Calm - N/A   Clear
2:55 AM 34.3 °F 34.2 °F 99% 30.02 in 7.0 mi Calm Calm - N/A   Clear
3:15 AM 34.0 °F 33.8 °F 99% 30.03 in 7.0 mi Calm Calm - N/A   Clear
3:35 AM 33.8 °F 33.6 °F 99% 30.04 in 7.0 mi Calm Calm - N/A   Clear
3:55 AM 33.4 °F 33.3 °F 99% 30.04 in 10.0 mi Calm Calm - N/A   Clear
4:15 AM 33.4 °F 33.3 °F 99% 30.04 in 10.0 mi Calm Calm - N/A   Clear
4:35 AM 33.1 °F 33.1 °F 100% 30.03 in 7.0 mi Calm Calm - N/A   Clear
4:55 AM 33.1 °F 33.1 °F 100% 30.03 in 10.0 mi Calm Calm - N/A   Clear
5:15 AM 32.9 °F 32.7 °F 99% 30.03 in 10.0 mi Calm Calm - N/A   Clear
5:35 AM 32.5 °F 32.4 °F 99% 30.03 in 10.0 mi Calm Calm - N/A   Clear
5:55 AM 32.0 °F 32.0 °F 100% 30.03 in 7.0 mi Calm Calm - N/A   Clear
6:15 AM 32.2 °F 32.2 °F 100% 30.04 in 7.0 mi Calm Calm - N/A   Clear
6:35 AM 32.2 °F 32.2 °F 100% 30.05 in 7.0 mi Calm Calm - N/A   Clear
6:55 AM 32.0 °F 32.0 °F 100% 30.06 in 7.0 mi Calm Calm - N/A   Clear
7:15 AM 32.0 °F 32.0 °F 100% 30.07 in 7.0 mi Calm Calm - N/A   Clear
7:35 AM 32.4 °F 32.4 °F 100% 30.08 in 10.0 mi Calm Calm - N/A   Clear
7:55 AM 34.0 °F 33.8 °F 99% 30.08 in 7.0 mi Calm Calm - N/A   Clear
8:15 AM 37.2 °F 35.8 °F 95% 30.09 in 10.0 mi Calm Calm - N/A   Clear
8:35 AM 40.3 °F 37.9 °F 91% 30.10 in 10.0 mi Calm Calm - N/A   Clear
8:55 AM 42.8 °F 38.8 °F 86% 30.11 in 10.0 mi Calm Calm - N/A   Clear
9:15 AM 45.5 °F 40.6 °F 83% 30.11 in 10.0 mi Calm Calm - N/A   Clear
9:35 AM 48.0 °F 41.5 °F 78% 30.13 in 10.0 mi Calm Calm - N/A   Clear
9:55 AM 50.0 °F 41.5 °F 73% 30.12 in 10.0 mi Calm Calm - N/A   Clear
10:15 AM 52.2 °F 41.5 °F 67% 30.11 in 10.0 mi SSE 3.5 mph - N/A   Clear
10:35 AM 54.3 °F 42.4 °F 64% 30.12 in 10.0 mi Calm Calm - N/A   Clear
10:55 AM 56.5 °F 42.1 °F 59% 30.11 in 10.0 mi Calm Calm - N/A   Mostly Cloudy
11:15 AM 58.3 °F 42.1 °F 55% 30.11 in 10.0 mi Calm Calm - N/A   Overcast
11:35 AM 58.5 °F 39.2 °F 49% 30.11 in 10.0 mi Calm Calm - N/A   Overcast
11:55 AM 58.3 °F 39.7 °F 50% 30.10 in 10.0 mi ESE 3.5 mph - N/A   Overcast
12:15 PM 58.6 °F 39.2 °F 48% 30.09 in 10.0 mi Calm Calm - N/A   Overcast
12:35 PM 59.0 °F 39.4 °F 48% 30.08 in 10.0 mi Calm Calm - N/A   Overcast
12:55 PM 60.6 °F 39.9 °F 46% 30.07 in 10.0 mi NE 3.5 mph - N/A   Mostly Cloudy
1:15 PM 59.7 °F 37.9 °F 44% 30.06 in 10.0 mi Calm Calm - N/A   Mostly Cloudy
1:35 PM 59.5 °F 37.0 °F 43% 30.06 in 10.0 mi Calm Calm - N/A   Overcast
1:55 PM 60.3 °F 38.5 °F 44% 30.05 in 10.0 mi Calm Calm - N/A   Scattered Clouds
2:15 PM 59.9 °F 37.9 °F 44% 30.06 in 10.0 mi Calm Calm - N/A   Scattered Clouds
2:35 PM 60.8 °F 38.5 °F 44% 30.06 in 10.0 mi Calm Calm - N/A   Scattered Clouds
2:55 PM 60.1 °F 38.5 °F 45% 30.06 in 10.0 mi Calm Calm - N/A   Scattered Clouds
3:15 PM 59.9 °F 38.8 °F 46% 30.06 in 10.0 mi Calm Calm - N/A   Mostly Cloudy
3:35 PM 59.9 °F 39.6 °F 47% 30.05 in 10.0 mi Calm Calm - N/A   Mostly Cloudy
3:55 PM 59.2 °F 41.4 °F 52% 30.06 in 10.0 mi Calm Calm - N/A   Scattered Clouds
4:15 PM 58.3 °F 41.2 °F 53% 30.06 in 10.0 mi South 3.5 mph - N/A   Mostly Cloudy
4:35 PM 57.7 °F 41.7 °F 55% 30.06 in 10.0 mi South 3.5 mph - N/A   Overcast
4:55 PM 57.0 °F 42.1 °F 57% 30.06 in 10.0 mi Calm Calm - N/A   Overcast
5:15 PM 55.6 °F 42.3 °F 61% 30.06 in 10.0 mi Calm Calm - N/A   Overcast
5:35 PM 54.5 °F 43.2 °F 66% 30.06 in 10.0 mi SSW 3.5 mph - N/A   Scattered Clouds
5:55 PM 52.3 °F 44.4 °F 74% 30.07 in 10.0 mi Calm Calm - N/A   Clear
6:15 PM 50.9 °F 44.1 °F 77% 30.08 in 10.0 mi WSW 3.5 mph - N/A   Scattered Clouds
6:35 PM 52.7 °F 43.5 °F 71% 30.09 in 10.0 mi WSW 3.5 mph - N/A   Mostly Cloudy
6:55 PM 52.9 °F 41.9 °F 66% 30.09 in 10.0 mi West 4.6 mph - N/A   Overcast
7:15 PM 52.9 °F 42.1 °F 67% 30.10 in 10.0 mi Calm Calm - N/A   Overcast
7:35 PM 51.3 °F 42.3 °F 71% 30.11 in 5.0 mi Calm Calm - N/A   Haze
7:55 PM 52.3 °F 41.9 °F 68% 30.11 in 10.0 mi Calm Calm - N/A   Overcast
8:15 PM 51.8 °F 43.2 °F 72% 30.12 in 10.0 mi Calm Calm - N/A   Overcast
8:35 PM 52.2 °F 44.2 °F 74% 30.12 in 10.0 mi Calm Calm - N/A   Overcast
8:55 PM 51.3 °F 44.8 °F 78% 30.12 in 10.0 mi Calm Calm - N/A   Overcast
9:15 PM 50.4 °F 43.9 °F 78% 30.13 in 10.0 mi Calm Calm - N/A   Mostly Cloudy
9:35 PM 50.0 °F 43.9 °F 79% 30.14 in 10.0 mi Calm Calm - N/A   Mostly Cloudy
9:55 PM 49.1 °F 44.6 °F 84% 30.14 in 10.0 mi Calm Calm - N/A   Mostly Cloudy
10:15 PM 48.9 °F 45.0 °F 86% 30.14 in 10.0 mi Calm Calm - N/A   Mostly Cloudy
10:35 PM 49.6 °F 44.1 °F 81% 30.15 in 10.0 mi Calm Calm - N/A   Overcast
10:55 PM 50.0 °F 45.0 °F 83% 30.15 in 10.0 mi Calm Calm - N/A   Overcast
11:15 PM 49.1 °F 45.7 °F 88% 30.15 in 10.0 mi Calm Calm - N/A   Overcast
11:35 PM 50.0 °F 44.6 °F 82% 30.15 in 10.0 mi Calm Calm - N/A   Overcast
11:55 PM 49.6 °F 44.2 °F 82% 30.14 in 10.0 mi Calm Calm - N/A   Overcast